Regional Weather Roundup
Issued by NWS

Home | Current Version | Previous Version | Text Only | Print | Product List | Glossary On
Versions: 1 2 3 4 5 6 7 8 9 10 11 12 13 14 15 16 17 18 19 20 21 22 23 24 25 26 27 28 29 30 31 32 33 34 35 36 37 38 39 40 41 42 43 44 45 46 47 48 49 50
000
ASUS42 KFFC 271310
RWRGA
WEATHER ROUNDUP FOR GEORGIA
NATIONAL WEATHER SERVICE PEACHTREE CITY GA
800 AM EST MON FEB 27 2017

NOTE: "FAIR" INDICATES FEW OR NO CLOUDS BELOW 12,000 FEET WITH NO
SIGNIFICANT WEATHER AND/OR OBSTRUCTIONS TO VISIBILITY.

* = USE WITH CAUTION. THE STATIONS MARKED WITH AN ASTERISK MAY NOT
REPORT WEATHER SUCH AS PRECIPITATION, FOG, OR THUNDER AND ARE NOT
QUALITY CONTROLLED BY NWS.

THE REMARK "TC" DENOTES TEMPERATURE READING IN DEGREES CELSIUS.

GAZ001>058-271400-
NORTH GEORGIA

CITY           SKY/WX    TMP DP  RH WIND       PRES   REMARKS
ATLANTA        MOCLDY    48  29  47 E9        30.27R
ATHENS         CLOUDY    43  30  60 E7        30.33R
CHAMBLEE       CLOUDY    48  25  40 CALM      30.30R
PEACHTREE CITY PTCLDY    40  37  89 CALM      30.29R
ROME           CLOUDY    43  33  68 CALM      30.21F
WEST ATLANTA   CLOUDY    47  32  56 E3        30.28R
GAINESVILLE    CLEAR     45  23  42 E7        30.32R
CARTERSVILLE   CLOUDY    47  27  45 VRB7      30.24F


CITY           SKY/WX    TMP DP  RH WIND       PRES   REMARKS
DALTON*        CLOUDY    41  34  75 CALM      30.25R
LAWRENCEVILLE* CLEAR     43  25  49 NE8       30.31R
MARIETTA       MOCLDY    47  29  50 NE3       30.28R
KENNESAW*      CLOUDY    46  27  46 E5        30.31R
CANTON*        CLOUDY    45  12  26 E7        30.30R
$$

GAZ059>098-102>109-271400-
CENTRAL GEORGIA

CITY           SKY/WX    TMP DP  RH WIND       PRES   REMARKS
AUGUSTA-BUSH   CLOUDY    39  36  89 CALM      30.34R
AUGUSTA-DANIEL SUNNY     45  34  65 CALM      30.35R
COLUMBUS       CLOUDY    49  25  39 E6        30.24R
MACON          CLOUDY    47  37  68 E3        30.30R
ROBINS AFB     CLOUDY    46  41  82 CALM      30.29R


CITY           SKY/WX    TMP DP  RH WIND       PRES   REMARKS
LAGRANGE*      CLOUDY    48  39  71 CALM      30.24R
SYLVANIA*      SUNNY    N/A N/A N/A CALM      30.32R
MILLEDGEVILLE* CLOUDY    46  41  81 CALM      30.32R
$$

GAZ099>101-110>166-271400-
SOUTH GEORGIA

CITY           SKY/WX    TMP DP  RH WIND       PRES   REMARKS
SAVANNAH       MOSUNNY   57  48  72 E8        30.29F
VALDOSTA       SUNNY     49  42  77 CALM      30.26R
ALMA           MOSUNNY   51  44  77 CALM      30.27R
ST SIMONS      SUNNY     65  57  75 E8        30.27S
FT STEWART     MOSUNNY   52  45  75 E3        30.26S
ALBANY         CLOUDY    50  42  74 E3        30.27R
HUNTER AFB     SUNNY     58  52  80 E8        30.26F
MOODY AFB      MOSUNNY   51  42  72 E6        30.25R
BRUNSWICK      SUNNY     61  55  82 E6        30.28S


CITY           SKY/WX    TMP DP  RH WIND       PRES   REMARKS
BAINBRIDGE*    SUNNY     52  39  62 SE3       30.25R
MOULTRIE*      CLOUDY    50  41  71 E3        30.26S
VIDALIA*       SUNNY     52  46  82 CALM      30.30R
WAYCROSS*      MOSUNNY   52  50  92 CALM      30.27R
DOUGLAS*       CLOUDY    50  41  71 CALM      30.29R
$$



USA.gov is the U.S. government's official web portal to all federal, state and local government web resources and services.